Domov               UVHVVR             MKGP            O straneh              
ZDRAVSTVENO VARSTVO RASTLIN
  MREŽA AGROMET. POSTAJ
 ► PROGNOSTIČNA OBVESTILA
AGROMETEOROLOŠKI PODATKI -
ARSO
OBVLADOVANJE TVEGANJ ZARADI
NEUGODNIH VREMENSKIH RAZMER
  ► NARAVNE NESREČE
  ► SUŠA/MOČA
  ► NAMAKANJE
  ► ŽLED (gozdarstvo)
KARTOGRAFSKI PRIKAZI
SPLETNE POVEZAVE
PROJEKTI IN PUBLIKACIJE

AGROMETEOROLOŠKA MREŽA: VREMENSKE POSTAJE IN FENOLOŠKA OPAZOVANJA

Pregled podatkov za lokacijo Pesnica, meteorološka postaja 25158

Pregled senzorjev na lokaciji

ID Ime Zadnja
vrednost
Datum
zadnje
spremembe
Tip
senzorja
913 Omočenost lista (U) 0 U 19.8.2017 03:00 A730WET
914 Temperatura 2 m ( °C) 18,83 °C 19.8.2017 03:00 Generic -40 - +60 °C
915 Relativna vlaga 2 m (% RH) 74,04 % RH 19.8.2017 03:00 Generic 0 - 100 %
916 Padavine 0.2 mm (mm) 0 mm 19.8.2017 03:00 Generic 0.2 mm
3981 Hitrost vetra (km/h) 0 km/h 19.8.2017 03:00 Generic 200 km/h

Pregled podatkov zadnjih 24 ur

Zap.
št.
Datum in čas Pesnica
Hitrost
vetra
Omočenost
lista
Padavine
0.2
mm
Relativna
vlaga
2
m
Temperatura
2
m
0 19.8.2017 02:00 0 0 0 74,04 18,83
1 19.8.2017 01:30 0 0 0 72,67 19
2 19.8.2017 01:00 0,15 0 0 69,26 20,07
3 19.8.2017 00:30 0,1 0 0 69,96 20,66
4 19.8.2017 00:00 0,1 0 0 65,81 21,34
5 18.8.2017 23:30 0,88 0 0 59,51 23,03
6 18.8.2017 23:00 0,15 0 0 63,98 23,54
7 18.8.2017 22:30 0,34 0 0 50,65 23,39
8 18.8.2017 22:00 0,98 0 0 52,82 23,93
9 18.8.2017 21:30 0,59 0 0 58,68 24,08
10 18.8.2017 21:00 0 0 53,14 24,79
11 18.8.2017 20:30 0,44 0 0 49,33 25,3
12 18.8.2017 20:00 1,17 0 0 47,01 26,08
13 18.8.2017 19:30 1,76 0 0 43,88 26,62
14 18.8.2017 19:00 0,93 0 0 41,29 27,72
15 18.8.2017 18:30 0,83 0 0 36,85 29,01
16 18.8.2017 18:00 2,34 0 0 34,16 29,96
17 18.8.2017 17:30 2,69 0 0 34,09 30,65
18 18.8.2017 17:00 2,39 0 0 34,87 31,26
19 18.8.2017 16:30 3,13 0 0 34,8 31,65
20 18.8.2017 16:00 3,32 0 0 32,38 31,94
21 18.8.2017 15:30 4 0 0 33,43 31,94
22 18.8.2017 15:00 2,15 0 0 34,11 32,01
23 18.8.2017 14:30 1,76 0 0 34,9 32,16
24 18.8.2017 14:00 3,52 0 0 35,78 31,97
25 18.8.2017 13:30 3,61 0 0 35,73 31,67
26 18.8.2017 13:00 2,34 0 0 33,94 31,45
27 18.8.2017 12:30 4,44 0 0 34,14 30,82
28 18.8.2017 12:00 3,81 0 0 35,75 30,23
29 18.8.2017 11:30 1,9 0 0 39,54 30,21
30 18.8.2017 11:00 2,93 0 0 45,98 29,08
31 18.8.2017 10:30 1,86 0 0 49,23 28,25
32 18.8.2017 10:00 0,88 0 0 54,75 27,08
33 18.8.2017 09:30 0,44 0 0 55,41 26,25
34 18.8.2017 09:00 1 0 57,61 24,98
35 18.8.2017 08:30 4 0 63,32 23,44
36 18.8.2017 08:00 4 0 67,45 21,07
37 18.8.2017 07:30 4 0 80,29 19,19
38 18.8.2017 07:00 4 0 91,45 17,78
39 18.8.2017 06:30 4 0 94,41 17,09
40 18.8.2017 06:00 4 0 95,8 16,48
41 18.8.2017 05:30 3 0 95,92 15,9
42 18.8.2017 05:00 3 0 95,36 16,12
43 18.8.2017 04:30 2 0 95,68 16,17
44 18.8.2017 04:00 2 0 95,65 16,26
© 2011 Ministrstvo za kmetijstvo, gozdarstvo in prehrano. Vse pravice pridržane.